Regional Weather Roundup
Issued by NWS Huntsville, AL

Home | Current Version | Previous Version | Text Only | Print | Product List | Glossary On
Versions: 1 2 3 4 5 6 7 8 9 10 11 12 13 14 15 16 17 18 19 20 21 22 23 24 25 26 27 28 29 30 31 32 33 34 35 36 37 38 39 40 41 42 43 44 45 46 47 48 49 50
000
ASUS44 KHUN 282010
RWRHUN

WEATHER ROUNDUP FOR THE TENNESSEE VALLEY
NATIONAL WEATHER SERVICE HUNTSVILLE AL
300 PM CDT THU MAY 28 2015

ALZ001>004-282100-
NORTHWEST ALABAMA

CITY           SKY/WX    TMP DP  RH WIND       PRES   REMARKS
COURTLAND HCN    N/A     78  32  18 CALM        N/A
BANKHEAD NF      N/A     79  65  62 NW3         N/A
RUSSELLVILLE     N/A     77 N/A N/A MISG        N/A
SHOALS AIRPORT MOSUNNY   80  67  64 E3        30.15F
SHOALS TVA RES   N/A     77 N/A N/A MISG        N/A
$$

ALZ005>007-016-282100-
NORTH CENTRAL ALABAMA

CITY           SKY/WX    TMP DP  RH WIND       PRES   REMARKS
DECATUR AP     PTSUNNY   80  68  66 SE5       30.14F
HUNTSVILLE AP  PTSUNNY   81  68  64 E7        30.14F
HUN NWS/UAH      N/A     81  66  59 SE3         N/A
MERIDIANVILLE  PTSUNNY   79  61  53 CALM      30.15F
REDSTONE ARSN  PTSUNNY   80  69  68 VRB3      30.14F
VINEMONT AP    FAIR      77  68  72 CALM      30.17F
$$

ALZ008>010-282100-
NORTHEAST ALABAMA

CITY           SKY/WX    TMP DP  RH WIND       PRES   REMARKS
ALBERTVILLE    MOSUNNY   79  72  78 CALM      30.15F
FORT PAYNE     MOSUNNY   79  63  57 CALM      30.15F
SCOTTSBORO HCN   N/A     79 N/A N/A MISG        N/A
VALLEY HEAD      N/A     77 N/A N/A MISG        N/A
$$

TNZ076-096-097-282100-
SOUTHEASTERN MIDDLE TENNESSEE

CITY           SKY/WX    TMP DP  RH WIND       PRES   REMARKS
TULLAHOMA      PTSUNNY   79  63  57 S3        30.17F
WINCHESTER     PTSUNNY   79  66  65 SE5       30.16F
$$

...SURROUNDING SITES...

CITY           SKY/WX    TMP DP  RH WIND       PRES   REMARKS
ATLANTA        LGT RAIN  69  64  84 CALM      30.18S
ANNISTON       CLOUDY    82  66  58 VRB3      30.13F
BIRMINGHAM     TSTM      71  70  96 W13       30.18R FOG
CHATTANOOGA    PTSUNNY   80  65  59 VRB3      30.16F
CORINTH        PTSUNNY   79  68  69 SW5       30.13F
DALTON         PTSUNNY   77  68  73 CALM      30.17S
GADSDEN        CLOUDY   N/A N/A N/A CALM      30.13F
GOLDEN TRNGL   PTSUNNY   79  70  73 NE9       30.10F
HALEYVILLE     FAIR      76  70  82 CALM      30.18F
JACKSON TN     CLOUDY    78  66  66 VRB5      30.14F
LEWISBURG      FAIR      80  62  54 E6        30.15F
MEMPHIS        PTSUNNY   81  64  57 CALM      30.12F
NASHVILLE      PTSUNNY   82  63  52 S3        30.16F
OXFORD MS      FAIR      77  64  65 SE3       30.13F
ROME           PTSUNNY   80  67  64 S3        30.15F
SAVANNAH       CLOUDY    75  32  20 CALM      30.15F
TUPELO         MOSUNNY   80  64  58 CALM      30.11F
TUSCALOOSA     PTSUNNY   76  69  79 CALM      30.14F
$$

...GULF COAST WEATHER...

CITY           SKY/WX    TMP DP  RH WIND       PRES   REMARKS
GULFPORT       MOSUNNY   84  73  69 SE24G30   30.08F HX  90
PASCAGOULA     MOSUNNY   85  73  67 S8        30.09F HX  91
MOBILE         PTSUNNY   82  71  69 S7        30.09F
GULF SHORES    CLOUDY    75  71  89 CALM      30.10F
PENSACOLA      CLOUDY    81  74  79 S6        30.09F
DESTIN         PTSUNNY   83  70  64 SE12      30.10F
PANAMA CITY    PTSUNNY   72  70  94 E6        30.12F
APPALACHICOLA  PTSUNNY   83  69  62 S16G24    30.12S
$$




USA.gov is the U.S. government's official web portal to all federal, state and local government web resources and services.